Regional Weather Roundup
Issued by NWS

Home | Current Version | Previous Version | Graphics & Text | Print | Product List | Glossary On
Versions: 1 2 3 4 5 6 7 8 9 10 11 12 13 14 15 16 17 18 19 20 21 22 23 24 25 26 27 28 29 30 31 32 33 34 35 36 37 38 39 40 41 42 43 44 45 46 47 48 49 50
000
ASUS43 KLMK 211210
RWRKY
KENTUCKY REGIONAL WEATHER ROUNDUP
NATIONAL WEATHER SERVICE LOUISVILLE KY
800 AM EDT THU AUG 21 2014

NOTE "FAIR" INDICATES FEW OR NO CLOUDS BELOW 12,000 FEET
WITH NO SIGNIFICANT WEATHER AND/OR OBSTRUCTIONS TO VISIBILITY.

KYZ001>023-026-027-061>063-070>075-211300-
WESTERN AND SOUTH CENTRAL KENTUCKY

CITY           SKY/WX    TMP DP  RH WIND       PRES   REMARKS
PADUCAH        CLEAR     78  73  84 SW7       30.04R
HENDERSON      PTCLDY    72  68  88 S5        30.02R
OWENSBORO      PTCLDY    71  66  84 S7        30.04R
HOPKINSVILLE   MOCLDY    71  71 100 S5        30.08R
BOWLING GREEN  MOCLDY    70  67  90 S5        30.07S
GLASGOW        MOCLDY    69  68  98 CALM      30.08S
$$

KYZ024-025-028>034-038-045-046-053-211300-
NORTH CENTRAL KENTUCKY

CITY           SKY/WX    TMP DP  RH WIND       PRES   REMARKS
LOUISVILLE/SDF CLOUDY    72  69  90 SW5       30.04R
LOUISVILLE/LOU PTSUNNY   73  69  87 S5        30.05R
FORT KNOX      MOCLDY    71  71 100 S8        30.05R
$$

KYZ035>037-039>044-047>052-055>060-089>105-211300-
NORTHEAST KENTUCKY

CITY           SKY/WX    TMP DP  RH WIND       PRES   REMARKS
LEXINGTON      PTSUNNY   71  67  87 SW5       30.09R
COVINGTON      MOSUNNY   69  67  93 SE3       30.05R
FRANKFORT      PTSUNNY   70  67  90 S5        30.07R
$$

KYZ054-064>069-076>088-106>120-211300-
SOUTHEAST KENTUCKY

CITY           SKY/WX    TMP DP  RH WIND       PRES   REMARKS
JACKSON        MOSUNNY   67  64  90 CALM      30.13S
LONDON         PTSUNNY   69  65  86 CALM      30.13S
SOMERSET       MOSUNNY   66  66 100 CALM      30.12S
MIDDLESBORO    FOG       65  65 100 CALM      30.17R VSB 1/4
MONTICELLO     MOSUNNY   67  66  96 CALM      30.13S
$$




USA.gov is the U.S. government's official web portal to all federal, state and local government web resources and services.